Flag for Tunisia Weather past 2 weeks in Tunis, Tunisia

Now
66 °F

Scattered clouds.


Feels Like: 66 °F
Forecast: 51 / 82 °F
Wind: 13 mph from Northwest

Location: Tunis-Carthage


UV Index: 5 (Moderate)

Visibility: N/A


Pressure: 29.92 "Hg

Humidity: 40%

Dew point: 41 °F

Location of TunisLocation

Historic Weather in Tunis

°F

Tunis temperature yesterday

Maximum temperature yesterday: 66 °F (at 12:00 PM)
Minimum temperature yesterday: 54 °F (at 3:30 AM)
Average temperature yesterday: 59 °F

Past Weeks' High & Low Weather Summary

 TemperatureHumidityPressure
High77 °F (Apr 3, 2:00 PM)100% (Apr 12, 3:00 AM)30.21 "Hg (Apr 12, 3:00 AM)
Low46 °F (Apr 11, 5:00 AM)32% (Apr 9, 2:30 PM)29.47 "Hg (Apr 3, 4:30 PM)
Average63 °F66%29.99 "Hg
* Reported Apr 3 11:00 AM — Apr 18 11:00 AM, Tunis, Weather by CustomWeather, © 2014

Note: Actual official high and low records may vary slightly from our data, if they occured in-between our weather recording intervals... More about our weather records

Advertising

Historic Weather Conditions — Data for Previous 24 hours

 ConditionsComfort  
Time TempWeatherWind HumidityBarometerVisibility
11:00 AM
Apr 18
68 °FScattered clouds.12 mph38%29.95 "HgN/A
10:30 AM66 °FPassing clouds.13 mph37%29.95 "HgN/A
10:00 AM66 °FPassing clouds.9 mph46%29.95 "HgN/A
9:30 AM64 °FPassing clouds.12 mph49%29.95 "HgN/A
9:00 AM63 °FPassing clouds.9 mph52%29.95 "HgN/A
8:30 AM61 °FPassing clouds.8 mph52%29.95 "HgN/A
8:00 AM59 °FPassing clouds.8 mph55%29.95 "HgN/A
7:30 AM55 °FPassing clouds.8 mph59%29.95 "HgN/A
7:00 AM54 °FPassing clouds.5 mph58%29.95 "HgN/A
6:30 AM52 °FPassing clouds.3 mph62%29.95 "HgN/A
6:00 AM50 °FPassing clouds.5 mph62%29.95 "HgN/A
5:30 AM50 °FPassing clouds.7 mph62%29.95 "HgN/A
5:00 AM50 °FPassing clouds.6 mph62%29.95 "HgN/A
4:00 AM50 °FPassing clouds.6 mph62%29.95 "HgN/A
3:30 AM50 °FPassing clouds.6 mph58%29.98 "HgN/A
2:30 AM52 °FPassing clouds.3 mph54%29.98 "HgN/A
2:00 AM52 °FPassing clouds.3 mph54%29.98 "HgN/A
1:30 AMN/APassing clouds.6 mphN/AN/AN/A
1:00 AM52 °FPassing clouds.No wind58%29.98 "HgN/A
12:30 AM54 °FPassing clouds.2 mph54%30.01 "HgN/A
12:00 AM54 °FPassing clouds.3 mph51%30.01 "HgN/A
11:30 PM
Apr 17
54 °FPassing clouds.6 mph51%30.01 "HgN/A
11:00 PM54 °FPassing clouds.No wind51%30.04 "HgN/A
10:30 PM54 °FPassing clouds.No wind51%30.04 "HgN/A
10:00 PM54 °FPassing clouds.3 mph51%30.04 "HgN/A
9:30 PM55 °FPassing clouds.No wind47%30.04 "HgN/A
9:00 PM55 °FPassing clouds.No wind47%30.04 "HgN/A
8:30 PM55 °FPassing clouds.3 mph44%30.04 "HgN/A
8:00 PM55 °FPassing clouds.5 mph47%30.04 "HgN/A
7:30 PM57 °FPassing clouds.6 mph44%30.04 "HgN/A
7:00 PM57 °FPassing clouds.6 mph41%30.04 "HgN/A
6:00 PM61 °FScattered clouds.9 mph42%30.04 "HgN/A
5:30 PM63 °FScattered clouds.12 mph37%30.04 "HgN/A
5:00 PM64 °FScattered clouds.15 mph37%30.04 "HgN/A
4:30 PM64 °FScattered clouds.14 mph40%30.04 "HgN/A
4:00 PM64 °FScattered clouds.16 mph37%30.04 "HgN/A
3:30 PM63 °FScattered clouds.15 mph37%30.04 "HgN/A
3:00 PM64 °FScattered clouds.15 mph40%30.04 "HgN/A
2:30 PM64 °FScattered clouds.17 mph37%30.04 "HgN/A
2:00 PM66 °FScattered clouds.18 mph35%30.04 "HgN/A
1:30 PM66 °FScattered clouds.18 mph35%30.07 "HgN/A
1:00 PM64 °FScattered clouds.18 mph43%30.07 "HgN/A
12:30 PM66 °FScattered clouds.18 mph37%30.07 "HgN/A
12:00 PM66 °FScattered clouds.18 mph40%30.07 "HgN/A
Weather by CustomWeather, © 2014

See weather overview